Terminal Aerodrome Forecast
Issued by NWS

Home | Current Version | Previous Version | Graphics & Text | Print | Product List | Glossary Off
Versions: 1 2 3 4 5 6 7 8 9 10 11 12 13 14 15 16 17 18 19 20 21 22 23 24 25 26 27 28

000
FTUS43 KDDC 290547 RRA
TAFGCK
TAF
KGCK 290547Z 2906/3006 03012KT P6SM SCT060
      TEMPO 2909/2913 -TSRA BKN050CB
     FM291400 06012KT P6SM SCT250 PROB30 2919/2923 -TSRA BKN060CB=

USA.gov is the U.S. government's official web portal to all federal, state and local government web resources and services.